Location: Arrodets-la-Barthe
(43.0306°N, 0.2829°E)
Time: 16:40:46
(UTC+00:00)

STRAND 1 - Pass Details

Date: 10 April 2023
Orbit: 767 x 779 km, 98.4° (Epoch: 04 June)

Event Time Altitude Azimuth Distance (km) Brightness Sun altitude
Rises 20:01:59 0° 0° (N) 3,248 ? -15.7°
Reaches altitude 10° 20:04:43 10° 346° (NNW) 2,316 ? -16.2°
Maximum altitude 20:08:36 22° 296° (WNW) 1,618 ? -16.8°
Drops below altitude 10° 20:12:27 10° 247° (WSW) 2,307 ? -17.4°
Sets 20:15:11 0° 232° (SW) 3,231 ? -17.8°
